LUCAS (JDRS-1)

Last updated on Sun Apr 12 2026 00:02:55 GMT+0000 (Coordinated Universal Time)

1 47202U 20089A 26101.46850309 -.00000233 00000+0 00000+0 0 9996 2 47202 0.0305 272.1574 0002784 104.5754 82.3774 1.00269688 19753
UTC large
Height (km)
Speed (km/s)
/
Latitude / Longitude
Inclination (degrees)
Orbital Period (minutes)
Azimuth
Elevation
Range (km)
Doppler Factor

Next 0 passes for location: London (51.5072 / 0.1276)

Sorry there are no passes over London.
LUCAS (JDRS-1)